owner,sensor,date,latitude,longitude,vertical_datum,sea_water_temperature,qcFlag
BP,ioos:station:wmo:42369:4,2021-11-01T00:40:00Z,27.2159,-90.2844,1342.0,4.2,11113222
BP,ioos:station:wmo:42369:4,2021-11-01T01:00:00Z,27.2159,-90.2844,1342.0,4.2,11113222
BP,ioos:station:wmo:42369:4,2021-11-01T01:20:00Z,27.2159,-90.2846,1342.0,4.2,11113222
BP,ioos:station:wmo:42369:4,2021-11-01T02:00:00Z,27.2159,-90.2834,1342.0,4.2,11113222
BP,ioos:station:wmo:42369:4,2021-11-01T02:20:00Z,27.2159,-90.2834,1342.0,4.2,11113222
BP,ioos:station:wmo:42369:4,2021-11-01T02:40:00Z,27.2159,-90.2834,1342.0,4.2,11113222
BP,ioos:station:wmo:42369:4,2021-11-01T03:00:00Z,27.2159,-90.2834,1342.0,4.2,11113222
BP,ioos:station:wmo:42369:4,2021-11-01T03:20:00Z,27.2159,-90.2834,1342.0,4.2,11113222
BP,ioos:station:wmo:42369:4,2021-11-01T03:40:00Z,27.2159,-90.2835,1342.0,4.2,11113222
BP,ioos:station:wmo:42369:4,2021-11-01T04:00:00Z,27.2159,-90.2835,1342.0,4.2,11113222
BP,ioos:station:wmo:42369:4,2021-11-01T04:20:00Z,27.2159,-90.2835,1342.0,4.2,11113222
BP,ioos:station:wmo:42369:4,2021-11-01T04:40:00Z,27.2159,-90.2836,1342.0,4.2,11113222
BP,ioos:station:wmo:42369:4,2021-11-01T05:00:00Z,27.2159,-90.2836,1342.0,4.2,11113222
BP,ioos:station:wmo:42369:4,2021-11-01T05:20:00Z,27.2159,-90.2836,1342.0,4.2,11113222
BP,ioos:station:wmo:42369:4,2021-11-01T05:40:00Z,27.2159,-90.2837,1342.0,4.2,11113222
BP,ioos:station:wmo:42369:4,2021-11-01T06:00:00Z,27.2159,-90.2837,1342.0,4.2,11113222
BP,ioos:station:wmo:42369:4,2021-11-01T06:20:00Z,27.2159,-90.2837,1342.0,4.2,11113222
BP,ioos:station:wmo:42369:4,2021-11-01T06:40:00Z,27.2159,-90.2837,1342.0,4.2,11113222
BP,ioos:station:wmo:42369:4,2021-11-01T07:00:00Z,27.2158,-90.2839,1342.0,4.2,11113222
BP,ioos:station:wmo:42369:4,2021-11-01T07:20:00Z,27.2158,-90.2839,1342.0,4.2,11113222
BP,ioos:station:wmo:42369:4,2021-11-01T07:40:00Z,27.2158,-90.2840,1342.0,4.2,11113222
BP,ioos:station:wmo:42369:4,2021-11-01T08:00:00Z,27.2157,-90.2842,1342.0,4.2,11113222
BP,ioos:station:wmo:42369:4,2021-11-01T08:20:00Z,27.2157,-90.2842,1342.0,4.1,11113222
BP,ioos:station:wmo:42369:4,2021-11-01T08:40:00Z,27.2157,-90.2843,1342.0,4.2,11113222
BP,ioos:station:wmo:42369:4,2021-11-01T09:00:00Z,27.2157,-90.2844,1342.0,4.2,11113222
BP,ioos:station:wmo:42369:4,2021-11-01T09:20:00Z,27.2157,-90.2844,1342.0,4.2,11113222
BP,ioos:station:wmo:42369:4,2021-11-01T09:40:00Z,27.2157,-90.2846,1342.0,4.2,11113222
BP,ioos:station:wmo:42369:4,2021-11-01T10:00:00Z,27.2157,-90.2846,1342.0,4.2,11113222
BP,ioos:station:wmo:42369:4,2021-11-01T10:20:00Z,27.2158,-90.2847,1342.0,4.2,11113222
BP,ioos:station:wmo:42369:4,2021-11-01T10:40:00Z,27.2158,-90.2847,1342.0,4.2,11113222
BP,ioos:station:wmo:42369:4,2021-11-01T11:00:00Z,27.2158,-90.2847,1342.0,4.2,11113222
BP,ioos:station:wmo:42369:4,2021-11-01T11:20:00Z,27.2158,-90.2848,1342.0,4.2,11113222
BP,ioos:station:wmo:42369:4,2021-11-01T11:40:00Z,27.2158,-90.2848,1342.0,4.2,11113222
BP,ioos:station:wmo:42369:4,2021-11-01T20:20:00Z,27.2158,-90.2852,1342.0,4.2,11113222
BP,ioos:station:wmo:42369:4,2021-11-01T22:40:00Z,27.2160,-90.2848,1342.0,4.2,11113222
BP,ioos:station:wmo:42369:4,2021-11-01T23:00:00Z,27.2160,-90.2844,1342.0,4.2,11113222
BP,ioos:station:wmo:42369:4,2021-11-01T23:20:00Z,27.2160,-90.2844,1342.0,4.2,11113222
BP,ioos:station:wmo:42369:4,2021-11-01T23:40:00Z,27.2160,-90.2844,1342.0,4.2,11113222
BP,ioos:station:wmo:42369:4,2021-11-02T00:00:00Z,27.2160,-90.2843,1342.0,4.2,11113222
BP,ioos:station:wmo:42369:4,2021-11-02T00:20:00Z,27.2160,-90.2843,1342.0,4.2,11113222
BP,ioos:station:wmo:42369:4,2021-11-02T00:40:00Z,27.2160,-90.2843,1342.0,4.2,11113222
BP,ioos:station:wmo:42369:4,2021-11-02T01:00:00Z,27.2160,-90.2843,1342.0,4.2,11113222
BP,ioos:station:wmo:42369:4,2021-11-02T01:20:00Z,27.2160,-90.2844,1342.0,4.2,11113222
BP,ioos:station:wmo:42369:4,2021-11-02T01:40:00Z,27.2160,-90.2844,1342.0,4.2,11113222
BP,ioos:station:wmo:42369:4,2021-11-02T02:00:00Z,27.2160,-90.2844,1342.0,4.2,11113222
BP,ioos:station:wmo:42369:4,2021-11-02T02:20:00Z,27.2160,-90.2844,1342.0,4.2,11113222
BP,ioos:station:wmo:42369:4,2021-11-02T02:40:00Z,27.2160,-90.2843,1342.0,4.2,11113222
BP,ioos:station:wmo:42369:4,2021-11-02T03:00:00Z,27.2160,-90.2843,1342.0,4.2,11113222
BP,ioos:station:wmo:42369:4,2021-11-02T03:20:00Z,27.2160,-90.2843,1342.0,4.2,11113222
BP,ioos:station:wmo:42369:4,2021-11-02T03:40:00Z,27.2160,-90.2843,1342.0,4.2,11113222
BP,ioos:station:wmo:42369:4,2021-11-02T04:00:00Z,27.2160,-90.2842,1342.0,4.2,11113222
BP,ioos:station:wmo:42369:4,2021-11-02T04:20:00Z,27.2160,-90.2842,1342.0,4.2,11113222
BP,ioos:station:wmo:42369:4,2021-11-02T04:40:00Z,27.2160,-90.2842,1342.0,4.2,11113222
BP,ioos:station:wmo:42369:4,2021-11-02T05:00:00Z,27.2160,-90.2843,1342.0,4.2,11113222
BP,ioos:station:wmo:42369:4,2021-11-02T05:20:00Z,27.2160,-90.2843,1342.0,4.2,11113222
BP,ioos:station:wmo:42369:4,2021-11-02T05:40:00Z,27.2159,-90.2843,1342.0,4.2,11113222
BP,ioos:station:wmo:42369:4,2021-11-02T06:00:00Z,27.2159,-90.2844,1342.0,4.2,11113222
BP,ioos:station:wmo:42369:4,2021-11-02T06:20:00Z,27.2159,-90.2844,1342.0,4.2,11113222
BP,ioos:station:wmo:42369:4,2021-11-02T06:40:00Z,27.2159,-90.2845,1342.0,4.2,11113222
BP,ioos:station:wmo:42369:4,2021-11-02T07:00:00Z,27.2159,-90.2847,1342.0,4.2,11113222
BP,ioos:station:wmo:42369:4,2021-11-02T07:20:00Z,27.2159,-90.2847,1342.0,4.2,11113222
BP,ioos:station:wmo:42369:4,2021-11-02T07:40:00Z,27.2159,-90.2849,1342.0,4.2,11113222
BP,ioos:station:wmo:42369:4,2021-11-02T08:00:00Z,27.2159,-90.2850,1342.0,4.2,11113222
BP,ioos:station:wmo:42369:4,2021-11-02T08:20:00Z,27.2158,-90.2851,1342.0,4.2,11113222
BP,ioos:station:wmo:42369:4,2021-11-02T08:40:00Z,27.2158,-90.2852,1342.0,4.2,11113222
BP,ioos:station:wmo:42369:4,2021-11-02T20:00:00Z,27.2157,-90.2852,1342.0,4.3,11113222
BP,ioos:station:wmo:42369:4,2021-11-02T22:00:00Z,27.2157,-90.2852,1342.0,4.2,11113222
BP,ioos:station:wmo:42369:4,2021-11-03T00:00:00Z,27.2157,-90.2854,1342.0,4.2,11113222
BP,ioos:station:wmo:42369:4,2021-11-03T00:20:00Z,27.2157,-90.2853,1342.0,4.2,11113222
BP,ioos:station:wmo:42369:4,2021-11-03T00:40:00Z,27.2158,-90.2853,1342.0,4.2,11113222
BP,ioos:station:wmo:42369:4,2021-11-03T01:00:00Z,27.2158,-90.2852,1342.0,4.2,11113222
BP,ioos:station:wmo:42369:4,2021-11-03T01:20:00Z,27.2158,-90.2852,1342.0,4.2,11113222
BP,ioos:station:wmo:42369:4,2021-11-03T01:40:00Z,27.2158,-90.2852,1342.0,4.2,11113222
BP,ioos:station:wmo:42369:4,2021-11-03T02:00:00Z,27.2158,-90.2852,1342.0,4.2,11113222
BP,ioos:station:wmo:42369:4,2021-11-03T02:20:00Z,27.2159,-90.2851,1342.0,4.2,11113222
BP,ioos:station:wmo:42369:4,2021-11-03T02:40:00Z,27.2159,-90.2851,1342.0,4.2,11113222
BP,ioos:station:wmo:42369:4,2021-11-03T03:00:00Z,27.2159,-90.2850,1342.0,4.2,11113222
BP,ioos:station:wmo:42369:4,2021-11-03T03:20:00Z,27.2160,-90.2849,1342.0,4.2,11113222
BP,ioos:station:wmo:42369:4,2021-11-03T03:40:00Z,27.2160,-90.2849,1342.0,4.2,11113222
BP,ioos:station:wmo:42369:4,2021-11-03T04:20:00Z,27.2160,-90.2849,1342.0,4.2,11113222
BP,ioos:station:wmo:42369:4,2021-11-03T04:40:00Z,27.2160,-90.2848,1342.0,4.2,11113222
BP,ioos:station:wmo:42369:4,2021-11-03T05:00:00Z,27.2160,-90.2848,1342.0,4.2,11113222
BP,ioos:station:wmo:42369:4,2021-11-03T05:20:00Z,27.2159,-90.2851,1342.0,4.2,11113222
BP,ioos:station:wmo:42369:4,2021-11-03T05:40:00Z,27.2159,-90.2852,1342.0,4.2,11113222
BP,ioos:station:wmo:42369:4,2021-11-03T06:00:00Z,27.2159,-90.2852,1342.0,4.2,11113222
BP,ioos:station:wmo:42369:4,2021-11-03T06:20:00Z,27.2159,-90.2852,1342.0,4.2,11113222
BP,ioos:station:wmo:42369:4,2021-11-03T06:40:00Z,27.2159,-90.2853,1342.0,4.2,11113222
BP,ioos:station:wmo:42369:4,2021-11-03T07:00:00Z,27.2159,-90.2854,1342.0,4.2,11113222
BP,ioos:station:wmo:42369:4,2021-11-03T07:20:00Z,27.2159,-90.2854,1342.0,4.2,11113222
BP,ioos:station:wmo:42369:4,2021-11-03T07:40:00Z,27.2159,-90.2854,1342.0,4.2,11113222
BP,ioos:station:wmo:42369:4,2021-11-03T08:00:00Z,27.2159,-90.2854,1342.0,4.2,11113222
BP,ioos:station:wmo:42369:4,2021-11-03T08:20:00Z,27.2159,-90.2854,1342.0,4.2,11113222
BP,ioos:station:wmo:42369:4,2021-11-03T08:40:00Z,27.2159,-90.2855,1342.0,4.2,11113222
BP,ioos:station:wmo:42369:4,2021-11-03T09:00:00Z,27.2158,-90.2855,1342.0,4.2,11113222
BP,ioos:station:wmo:42369:4,2021-11-03T09:20:00Z,27.2158,-90.2856,1342.0,4.2,11113222
BP,ioos:station:wmo:42369:4,2021-11-03T09:40:00Z,27.2158,-90.2856,1342.0,4.2,11113222
BP,ioos:station:wmo:42369:4,2021-11-03T10:00:00Z,27.2158,-90.2856,1342.0,4.2,11113222
BP,ioos:station:wmo:42369:4,2021-11-03T10:20:00Z,27.2157,-90.2857,1342.0,4.2,11113222
BP,ioos:station:wmo:42369:4,2021-11-03T10:40:00Z,27.2157,-90.2858,1342.0,4.2,11113222
BP,ioos:station:wmo:42369:4,2021-11-03T11:00:00Z,27.2157,-90.2858,1342.0,4.2,11113222
BP,ioos:station:wmo:42369:4,2021-11-03T11:20:00Z,27.2157,-90.2859,1342.0,4.2,11113222
BP,ioos:station:wmo:42369:4,2021-11-03T11:40:00Z,27.2156,-90.2859,1342.0,4.2,11113222
BP,ioos:station:wmo:42369:4,2021-11-03T12:00:00Z,27.2156,-90.2860,1342.0,4.2,11113222
BP,ioos:station:wmo:42369:4,2021-11-03T12:20:00Z,27.2156,-90.2860,1342.0,4.2,11113222
BP,ioos:station:wmo:42369:4,2021-11-03T12:40:00Z,27.2155,-90.2860,1342.0,4.2,11113222
BP,ioos:station:wmo:42369:4,2021-11-03T13:00:00Z,27.2156,-90.2858,1342.0,4.2,11113222
BP,ioos:station:wmo:42369:4,2021-11-03T13:20:00Z,27.2156,-90.2858,1342.0,4.2,11113222
BP,ioos:station:wmo:42369:4,2021-11-03T19:20:00Z,27.2156,-90.2861,1342.0,4.3,11113222
BP,ioos:station:wmo:42369:4,2021-11-03T19:40:00Z,27.2156,-90.2861,1342.0,4.3,11113222
BP,ioos:station:wmo:42369:4,2021-11-03T20:20:00Z,27.2156,-90.2861,1342.0,4.2,11113222
BP,ioos:station:wmo:42369:4,2021-11-03T21:20:00Z,27.2156,-90.2857,1342.0,4.2,11113222
BP,ioos:station:wmo:42369:4,2021-11-03T21:40:00Z,27.2156,-90.2857,1342.0,4.2,11113222
BP,ioos:station:wmo:42369:4,2021-11-03T22:20:00Z,27.2159,-90.2851,1342.0,4.2,11113222
BP,ioos:station:wmo:42369:4,2021-11-03T23:20:00Z,27.2160,-90.2850,1342.0,4.2,11113222
BP,ioos:station:wmo:42369:4,2021-11-04T00:00:00Z,27.2161,-90.2847,1342.0,4.2,11113222
BP,ioos:station:wmo:42369:4,2021-11-04T00:20:00Z,27.2160,-90.2848,1342.0,4.2,11113222
BP,ioos:station:wmo:42369:4,2021-11-04T02:20:00Z,27.2162,-90.2842,1342.0,4.2,11113222
BP,ioos:station:wmo:42369:4,2021-11-04T04:00:00Z,27.2161,-90.2841,1342.0,4.2,11113222
BP,ioos:station:wmo:42369:4,2021-11-04T04:20:00Z,27.2161,-90.2841,1342.0,4.2,11113222
BP,ioos:station:wmo:42369:4,2021-11-04T05:20:00Z,27.2159,-90.2849,1342.0,4.2,11113222
BP,ioos:station:wmo:42369:4,2021-11-04T07:40:00Z,27.2159,-90.2845,1342.0,4.2,11113222
BP,ioos:station:wmo:42369:4,2021-11-04T08:00:00Z,27.2159,-90.2844,1342.0,4.2,11113222
BP,ioos:station:wmo:42369:4,2021-11-04T09:00:00Z,27.2160,-90.2844,1342.0,4.2,11113222
BP,ioos:station:wmo:42369:4,2021-11-04T09:20:00Z,27.2160,-90.2844,1342.0,4.2,11113222
BP,ioos:station:wmo:42369:4,2021-11-04T10:00:00Z,27.2159,-90.2852,1342.0,4.2,11113222
BP,ioos:station:wmo:42369:4,2021-11-04T10:20:00Z,27.2159,-90.2853,1342.0,4.2,11113222
BP,ioos:station:wmo:42369:4,2021-11-04T10:40:00Z,27.2159,-90.2853,1342.0,4.2,11113222
BP,ioos:station:wmo:42369:4,2021-11-04T11:00:00Z,27.2159,-90.2853,1342.0,4.2,11113222
BP,ioos:station:wmo:42369:4,2021-11-04T11:20:00Z,27.2159,-90.2853,1342.0,4.2,11113222
BP,ioos:station:wmo:42369:4,2021-11-04T11:40:00Z,27.2159,-90.2853,1342.0,4.2,11113222
BP,ioos:station:wmo:42369:4,2021-11-04T12:00:00Z,27.2158,-90.2854,1342.0,4.2,11113222
BP,ioos:station:wmo:42369:4,2021-11-04T12:20:00Z,27.2158,-90.2854,1342.0,4.2,11113222
BP,ioos:station:wmo:42369:4,2021-11-04T12:40:00Z,27.2158,-90.2854,1342.0,4.2,11113222
BP,ioos:station:wmo:42369:4,2021-11-04T13:00:00Z,27.2158,-90.2855,1342.0,4.2,11113222
BP,ioos:station:wmo:42369:4,2021-11-04T13:20:00Z,27.2158,-90.2856,1342.0,4.3,11113222
BP,ioos:station:wmo:42369:4,2021-11-04T13:40:00Z,27.2158,-90.2856,1342.0,4.3,11113222
BP,ioos:station:wmo:42369:4,2021-11-04T14:00:00Z,27.2158,-90.2856,1342.0,4.3,11113222
BP,ioos:station:wmo:42369:4,2021-11-04T14:20:00Z,27.2158,-90.2857,1342.0,4.3,11113222
BP,ioos:station:wmo:42369:4,2021-11-04T14:40:00Z,27.2158,-90.2857,1342.0,4.3,11113222
BP,ioos:station:wmo:42369:4,2021-11-04T15:00:00Z,27.2158,-90.2858,1342.0,4.3,11113222
BP,ioos:station:wmo:42369:4,2021-11-04T15:20:00Z,27.2158,-90.2858,1342.0,4.3,11113222
BP,ioos:station:wmo:42369:4,2021-11-04T15:40:00Z,27.2157,-90.2859,1342.0,4.3,11113222
BP,ioos:station:wmo:42369:4,2021-11-04T16:00:00Z,27.2156,-90.2860,1342.0,4.3,11113222
BP,ioos:station:wmo:42369:4,2021-11-04T16:20:00Z,27.2156,-90.2861,1342.0,4.3,11113222
BP,ioos:station:wmo:42369:4,2021-11-04T21:00:00Z,27.2156,-90.2861,1342.0,4.3,11113222
BP,ioos:station:wmo:42369:4,2021-11-04T21:20:00Z,27.2156,-90.2861,1342.0,4.3,11113222
BP,ioos:station:wmo:42369:4,2021-11-04T21:40:00Z,27.2156,-90.2861,1342.0,4.2,11113222
BP,ioos:station:wmo:42369:4,2021-11-04T22:00:00Z,27.2156,-90.2861,1342.0,4.2,11113222
BP,ioos:station:wmo:42369:4,2021-11-04T22:20:00Z,27.2162,-90.2839,1342.0,4.2,11113222
BP,ioos:station:wmo:42369:4,2021-11-04T22:40:00Z,27.2162,-90.2839,1342.0,4.3,11113222
BP,ioos:station:wmo:42369:4,2021-11-04T23:00:00Z,27.2163,-90.2839,1342.0,4.2,11113222
BP,ioos:station:wmo:42369:4,2021-11-05T01:00:00Z,27.2156,-90.2857,1342.0,4.2,11113222
BP,ioos:station:wmo:42369:4,2021-11-05T01:20:00Z,27.2156,-90.2857,1342.0,4.2,11113222
BP,ioos:station:wmo:42369:4,2021-11-05T04:00:00Z,27.2158,-90.2855,1342.0,4.2,11113222
BP,ioos:station:wmo:42369:4,2021-11-05T04:20:00Z,27.2158,-90.2853,1342.0,4.2,11113222
BP,ioos:station:wmo:42369:4,2021-11-05T04:40:00Z,27.2158,-90.2853,1342.0,4.2,11113222
BP,ioos:station:wmo:42369:4,2021-11-05T05:00:00Z,27.2159,-90.2852,1342.0,4.2,11113222
BP,ioos:station:wmo:42369:4,2021-11-05T05:20:00Z,27.2160,-90.2851,1342.0,4.2,11113222
BP,ioos:station:wmo:42369:4,2021-11-05T05:40:00Z,27.2160,-90.2851,1342.0,4.2,11113222
BP,ioos:station:wmo:42369:4,2021-11-05T06:00:00Z,27.2160,-90.2851,1342.0,4.2,11113222
BP,ioos:station:wmo:42369:4,2021-11-05T06:20:00Z,27.2160,-90.2849,1342.0,4.2,11113222
BP,ioos:station:wmo:42369:4,2021-11-05T06:40:00Z,27.2160,-90.2849,1342.0,4.2,11113222
BP,ioos:station:wmo:42369:4,2021-11-05T07:00:00Z,27.2161,-90.2847,1342.0,4.2,11113222
BP,ioos:station:wmo:42369:4,2021-11-05T07:20:00Z,27.2161,-90.2846,1342.0,4.2,11113222
BP,ioos:station:wmo:42369:4,2021-11-05T07:40:00Z,27.2161,-90.2845,1342.0,4.2,11113222
BP,ioos:station:wmo:42369:4,2021-11-05T08:00:00Z,27.2161,-90.2845,1342.0,4.2,11113222
BP,ioos:station:wmo:42369:4,2021-11-05T08:20:00Z,27.2161,-90.2844,1342.0,4.2,11113222
BP,ioos:station:wmo:42369:4,2021-11-05T08:40:00Z,27.2161,-90.2844,1342.0,4.2,11113222
BP,ioos:station:wmo:42369:4,2021-11-05T09:00:00Z,27.2162,-90.2844,1342.0,4.2,11113222
BP,ioos:station:wmo:42369:4,2021-11-05T09:20:00Z,27.2162,-90.2841,1342.0,4.2,11113222
BP,ioos:station:wmo:42369:4,2021-11-05T09:40:00Z,27.2162,-90.2841,1342.0,4.2,11113222
BP,ioos:station:wmo:42369:4,2021-11-05T10:00:00Z,27.2161,-90.2840,1342.0,4.3,11113222
BP,ioos:station:wmo:42369:4,2021-11-05T10:20:00Z,27.2161,-90.2841,1342.0,4.3,11113222
BP,ioos:station:wmo:42369:4,2021-11-05T10:40:00Z,27.2161,-90.2841,1342.0,4.3,11113222
BP,ioos:station:wmo:42369:4,2021-11-05T11:00:00Z,27.2161,-90.2841,1342.0,4.2,11113222
BP,ioos:station:wmo:42369:4,2021-11-05T11:20:00Z,27.2161,-90.2841,1342.0,4.2,11113222
BP,ioos:station:wmo:42369:4,2021-11-05T11:40:00Z,27.2160,-90.2843,1342.0,4.2,11113222
BP,ioos:station:wmo:42369:4,2021-11-05T12:00:00Z,27.2160,-90.2847,1342.0,4.3,11113222
BP,ioos:station:wmo:42369:4,2021-11-05T12:20:00Z,27.2160,-90.2846,1342.0,4.2,11113222
BP,ioos:station:wmo:42369:4,2021-11-05T12:40:00Z,27.2160,-90.2847,1342.0,4.2,11113222
BP,ioos:station:wmo:42369:4,2021-11-05T13:00:00Z,27.2160,-90.2847,1342.0,4.3,11113222
BP,ioos:station:wmo:42369:4,2021-11-05T13:20:00Z,27.2160,-90.2848,1342.0,4.3,11113222
BP,ioos:station:wmo:42369:4,2021-11-05T13:40:00Z,27.2159,-90.2849,1342.0,4.2,11113222
BP,ioos:station:wmo:42369:4,2021-11-05T14:00:00Z,27.2159,-90.2849,1342.0,4.3,11113222
BP,ioos:station:wmo:42369:4,2021-11-05T14:20:00Z,27.2160,-90.2849,1342.0,4.3,11113222
BP,ioos:station:wmo:42369:4,2021-11-05T14:40:00Z,27.2159,-90.2849,1342.0,4.3,11113222
BP,ioos:station:wmo:42369:4,2021-11-05T15:00:00Z,27.2159,-90.2848,1342.0,4.3,11113222
BP,ioos:station:wmo:42369:4,2021-11-05T15:20:00Z,27.2160,-90.2847,1342.0,4.3,11113222
BP,ioos:station:wmo:42369:4,2021-11-05T15:40:00Z,27.2159,-90.2846,1342.0,4.3,11113222
BP,ioos:station:wmo:42369:4,2021-11-05T16:00:00Z,27.2159,-90.2846,1342.0,4.3,11113222
BP,ioos:station:wmo:42369:4,2021-11-05T16:20:00Z,27.2159,-90.2846,1342.0,4.3,11113222
BP,ioos:station:wmo:42369:4,2021-11-05T16:40:00Z,27.2159,-90.2844,1342.0,4.3,11113222
BP,ioos:station:wmo:42369:4,2021-11-05T17:00:00Z,27.2159,-90.2845,1342.0,4.3,11113222
BP,ioos:station:wmo:42369:4,2021-11-05T17:20:00Z,27.2159,-90.2845,1342.0,4.3,11113222
BP,ioos:station:wmo:42369:4,2021-11-05T17:40:00Z,27.2159,-90.2844,1342.0,4.3,11113222
BP,ioos:station:wmo:42369:4,2021-11-05T18:00:00Z,27.2160,-90.2844,1342.0,4.3,11113222
BP,ioos:station:wmo:42369:4,2021-11-05T18:20:00Z,27.2160,-90.2844,1342.0,4.3,11113222
BP,ioos:station:wmo:42369:4,2021-11-05T23:20:00Z,27.2163,-90.2799,1342.0,4.3,11113222
BP,ioos:station:wmo:42369:4,2021-11-05T23:40:00Z,27.2163,-90.2800,1342.0,4.3,11113222
BP,ioos:station:wmo:42369:4,2021-11-06T01:00:00Z,27.2162,-90.2801,1342.0,4.3,11113222
BP,ioos:station:wmo:42369:4,2021-11-06T03:00:00Z,27.2162,-90.2802,1342.0,4.3,11113222
BP,ioos:station:wmo:42369:4,2021-11-06T05:00:00Z,27.2161,-90.2843,1342.0,4.3,11113222
BP,ioos:station:wmo:42369:4,2021-11-06T05:20:00Z,27.2161,-90.2841,1342.0,4.3,11113222
BP,ioos:station:wmo:42369:4,2021-11-06T05:40:00Z,27.2162,-90.2840,1342.0,4.3,11113222
BP,ioos:station:wmo:42369:4,2021-11-06T06:00:00Z,27.2162,-90.2839,1342.0,4.3,11113222
BP,ioos:station:wmo:42369:4,2021-11-06T06:40:00Z,27.2163,-90.2839,1342.0,4.3,11113222
BP,ioos:station:wmo:42369:4,2021-11-06T07:00:00Z,27.2164,-90.2834,1342.0,4.3,11113222
BP,ioos:station:wmo:42369:4,2021-11-06T07:20:00Z,27.2164,-90.2833,1342.0,4.3,11113222
BP,ioos:station:wmo:42369:4,2021-11-06T07:40:00Z,27.2164,-90.2831,1342.0,4.3,11113222
BP,ioos:station:wmo:42369:4,2021-11-06T08:00:00Z,27.2165,-90.2832,1342.0,4.3,11113222
BP,ioos:station:wmo:42369:4,2021-11-06T09:00:00Z,27.2162,-90.2797,1342.0,4.3,11113222
BP,ioos:station:wmo:42369:4,2021-11-06T11:20:00Z,27.2162,-90.2794,1342.0,4.3,11113222
BP,ioos:station:wmo:42369:4,2021-11-06T12:00:00Z,27.2162,-90.2795,1342.0,4.3,11113222
BP,ioos:station:wmo:42369:4,2021-11-06T14:40:00Z,27.2161,-90.2792,1342.0,4.3,11113222
BP,ioos:station:wmo:42369:4,2021-11-06T16:00:00Z,27.2166,-90.2829,1342.0,4.3,11113222
BP,ioos:station:wmo:42369:4,2021-11-06T16:20:00Z,27.2160,-90.2783,1342.0,4.3,11113222
BP,ioos:station:wmo:42369:4,2021-11-06T16:40:00Z,27.2160,-90.2784,1342.0,4.3,11113222
BP,ioos:station:wmo:42369:4,2021-11-06T17:00:00Z,27.2159,-90.2780,1342.0,4.3,11113222
BP,ioos:station:wmo:42369:4,2021-11-06T17:40:00Z,27.2158,-90.2780,1342.0,4.3,11113222
BP,ioos:station:wmo:42369:4,2021-11-06T18:00:00Z,27.2166,-90.2826,1342.0,4.3,11113222
BP,ioos:station:wmo:42369:4,2021-11-06T18:20:00Z,27.2166,-90.2826,1342.0,4.3,11113222
BP,ioos:station:wmo:42369:4,2021-11-06T18:40:00Z,27.2166,-90.2826,1342.0,4.3,11113222
BP,ioos:station:wmo:42369:4,2021-11-06T19:00:00Z,27.2166,-90.2826,1342.0,4.3,11113222
BP,ioos:station:wmo:42369:4,2021-11-06T19:20:00Z,27.2166,-90.2825,1342.0,4.3,11113222
BP,ioos:station:wmo:42369:4,2021-11-06T19:40:00Z,27.2166,-90.2825,1342.0,4.3,11113222
BP,ioos:station:wmo:42369:4,2021-11-06T20:00:00Z,27.2165,-90.2825,1342.0,4.3,11113222
BP,ioos:station:wmo:42369:4,2021-11-06T20:20:00Z,27.2165,-90.2823,1342.0,4.3,11113222
BP,ioos:station:wmo:42369:4,2021-11-06T20:40:00Z,27.2165,-90.2822,1342.0,4.3,11113222
BP,ioos:station:wmo:42369:4,2021-11-06T21:00:00Z,27.2165,-90.2822,1342.0,4.3,11113222
BP,ioos:station:wmo:42369:4,2021-11-06T21:20:00Z,27.2165,-90.2821,1342.0,4.3,11113222
BP,ioos:station:wmo:42369:4,2021-11-06T21:40:00Z,27.2165,-90.2819,1342.0,4.3,11113222
BP,ioos:station:wmo:42369:4,2021-11-06T22:00:00Z,27.2165,-90.2820,1342.0,4.3,11113222
BP,ioos:station:wmo:42369:4,2021-11-06T22:20:00Z,27.2165,-90.2819,1342.0,4.3,11113222
BP,ioos:station:wmo:42369:4,2021-11-06T22:40:00Z,27.2166,-90.2817,1342.0,4.3,11113222
BP,ioos:station:wmo:42369:4,2021-11-06T23:00:00Z,27.2165,-90.2816,1342.0,4.3,11113222
BP,ioos:station:wmo:42369:4,2021-11-06T23:20:00Z,27.2165,-90.2816,1342.0,4.3,11113222
BP,ioos:station:wmo:42369:4,2021-11-06T23:40:00Z,27.2165,-90.2816,1342.0,4.3,11113222
BP,ioos:station:wmo:42369:4,2021-11-07T00:00:00Z,27.2165,-90.2817,1342.0,4.3,11113222
BP,ioos:station:wmo:42369:4,2021-11-07T00:20:00Z,27.2165,-90.2817,1342.0,4.3,11113222
BP,ioos:station:wmo:42369:4,2021-11-07T00:40:00Z,27.2165,-90.2817,1342.0,4.3,11113222
BP,ioos:station:wmo:42369:4,2021-11-07T01:00:00Z,27.2165,-90.2815,1342.0,4.3,11113222
BP,ioos:station:wmo:42369:4,2021-11-07T01:20:00Z,27.2165,-90.2812,1342.0,4.3,11113222
BP,ioos:station:wmo:42369:4,2021-11-07T01:40:00Z,27.2165,-90.2810,1342.0,4.3,11113222
BP,ioos:station:wmo:42369:4,2021-11-07T02:00:00Z,27.2166,-90.2808,1342.0,4.3,11113222
BP,ioos:station:wmo:42369:4,2021-11-07T02:20:00Z,27.2165,-90.2806,1342.0,4.3,11113222
BP,ioos:station:wmo:42369:4,2021-11-07T02:40:00Z,27.2165,-90.2803,1342.0,4.3,11113222
BP,ioos:station:wmo:42369:4,2021-11-07T03:00:00Z,27.2165,-90.2801,1342.0,4.3,11113222
BP,ioos:station:wmo:42369:4,2021-11-07T03:20:00Z,27.2165,-90.2799,1342.0,4.3,11113222
BP,ioos:station:wmo:42369:4,2021-11-07T03:40:00Z,27.2164,-90.2798,1342.0,4.3,11113222
BP,ioos:station:wmo:42369:4,2021-11-07T04:00:00Z,27.2164,-90.2797,1342.0,4.3,11113222
BP,ioos:station:wmo:42369:4,2021-11-07T04:20:00Z,27.2164,-90.2798,1342.0,4.3,11113222
BP,ioos:station:wmo:42369:4,2021-11-07T04:40:00Z,27.2164,-90.2798,1342.0,4.3,11113222
BP,ioos:station:wmo:42369:4,2021-11-07T05:00:00Z,27.2164,-90.2799,1342.0,4.3,11113222
BP,ioos:station:wmo:42369:4,2021-11-07T05:20:00Z,27.2163,-90.2799,1342.0,4.3,11113222
BP,ioos:station:wmo:42369:4,2021-11-07T05:40:00Z,27.2163,-90.2799,1342.0,4.3,11113222
BP,ioos:station:wmo:42369:4,2021-11-07T06:00:00Z,27.2163,-90.2800,1342.0,4.3,11113222
BP,ioos:station:wmo:42369:4,2021-11-07T06:20:00Z,27.2163,-90.2800,1342.0,4.3,11113222
BP,ioos:station:wmo:42369:4,2021-11-07T06:40:00Z,27.2163,-90.2800,1342.0,4.3,11113222
BP,ioos:station:wmo:42369:4,2021-11-07T07:00:00Z,27.2163,-90.2800,1342.0,4.3,11113222
BP,ioos:station:wmo:42369:4,2021-11-07T07:20:00Z,27.2163,-90.2800,1342.0,4.3,11113222
BP,ioos:station:wmo:42369:4,2021-11-07T07:40:00Z,27.2163,-90.2800,1342.0,4.3,11113222
BP,ioos:station:wmo:42369:4,2021-11-07T08:00:00Z,27.2163,-90.2801,1342.0,4.3,11113222
BP,ioos:station:wmo:42369:4,2021-11-07T08:20:00Z,27.2162,-90.2802,1342.0,4.3,11113222
BP,ioos:station:wmo:42369:4,2021-11-07T08:40:00Z,27.2162,-90.2802,1342.0,4.3,11113222
BP,ioos:station:wmo:42369:4,2021-11-07T09:00:00Z,27.2162,-90.2802,1342.0,4.3,11113222
BP,ioos:station:wmo:42369:4,2021-11-07T09:20:00Z,27.2162,-90.2802,1342.0,4.3,11113222
BP,ioos:station:wmo:42369:4,2021-11-07T09:40:00Z,27.2162,-90.2802,1342.0,4.3,11113222
BP,ioos:station:wmo:42369:4,2021-11-07T10:00:00Z,27.2162,-90.2801,1342.0,4.3,11113222
BP,ioos:station:wmo:42369:4,2021-11-07T10:20:00Z,27.2162,-90.2800,1342.0,4.3,11113222
BP,ioos:station:wmo:42369:4,2021-11-07T10:40:00Z,27.2162,-90.2800,1342.0,4.3,11113222
BP,ioos:station:wmo:42369:4,2021-11-07T11:00:00Z,27.2162,-90.2800,1342.0,4.3,11113222
BP,ioos:station:wmo:42369:4,2021-11-07T11:20:00Z,27.2161,-90.2800,1342.0,4.3,11113222
BP,ioos:station:wmo:42369:4,2021-11-07T11:40:00Z,27.2161,-90.2799,1342.0,4.3,11113222
BP,ioos:station:wmo:42369:4,2021-11-07T12:00:00Z,27.2161,-90.2799,1342.0,4.3,11113222